Time,TemperatureF,DewpointF,PressureIn,WindDirection,WindDirectionDegrees,WindSpeedMPH,WindSpeedGustMPH,Humidity,HourlyPrecipIn,Conditions,Clouds,dailyrainin,SoftwareType,DateUTC
2013-01-25 00:02:00,24.0,6.0,30.33,East,98,0.0,0.0,45,0.00,,,0.00,,2013-01-25 06:02:00,
2013-01-25 00:11:00,24.0,6.0,30.33,East,98,0.0,0.0,45,0.00,,,0.00,,2013-01-25 06:11:00,
2013-01-25 00:21:00,24.0,5.0,30.31,ESE,105,0.0,0.0,44,0.00,,,0.00,,2013-01-25 06:21:00,
2013-01-25 00:32:00,25.0,6.0,30.30,ESE,117,0.0,0.0,43,0.00,,,0.00,,2013-01-25 06:32:00,
2013-01-25 00:42:00,25.0,6.0,30.30,ESE,117,0.0,0.0,43,0.00,,,0.00,,2013-01-25 06:42:00,
2013-01-25 00:52:00,25.0,6.0,30.29,East,88,0.0,0.0,44,0.00,,,0.00,,2013-01-25 06:52:00,
2013-01-25 01:02:00,25.0,6.0,30.29,ENE,78,0.0,0.0,44,0.00,,,0.00,,2013-01-25 07:02:00,
2013-01-25 01:11:00,25.0,6.0,30.29,ENE,78,0.0,0.0,44,0.00,,,0.00,,2013-01-25 07:11:00,
2013-01-25 01:21:00,25.0,6.0,30.27,East,94,0.0,0.0,43,0.00,,,0.00,,2013-01-25 07:21:00,
2013-01-25 01:31:00,25.0,6.0,30.27,ESE,102,0.0,0.0,43,0.00,,,0.00,,2013-01-25 07:31:00,
2013-01-25 01:42:00,25.0,6.0,30.27,ESE,102,0.0,0.0,43,0.00,,,0.00,,2013-01-25 07:42:00,
2013-01-25 01:52:00,25.0,6.0,30.25,ESE,110,0.0,0.0,43,0.00,,,0.00,,2013-01-25 07:52:00,
2013-01-25 02:01:00,25.0,5.0,30.24,ESE,110,0.0,0.0,42,0.00,,,0.00,,2013-01-25 08:01:00,
2013-01-25 02:11:00,25.0,5.0,30.24,ESE,111,0.0,0.0,42,0.00,,,0.00,,2013-01-25 08:11:00,
2013-01-25 02:21:00,25.0,5.0,30.24,ESE,111,0.0,0.0,42,0.00,,,0.00,,2013-01-25 08:21:00,
2013-01-25 02:32:00,26.0,7.0,30.24,East,93,0.0,0.0,43,0.00,,,0.00,,2013-01-25 08:32:00,
2013-01-25 02:41:00,26.0,7.0,30.24,East,93,0.0,0.0,43,0.00,,,0.00,,2013-01-25 08:41:00,
2013-01-25 02:52:00,26.0,7.0,30.23,ESE,110,0.0,0.0,43,0.00,,,0.00,,2013-01-25 08:52:00,
2013-01-25 03:01:00,26.0,7.0,30.22,ESE,111,0.0,0.0,43,0.00,,,0.00,,2013-01-25 09:01:00,
2013-01-25 03:11:00,26.0,7.0,30.22,ESE,111,0.0,0.0,43,0.00,,,0.00,,2013-01-25 09:11:00,
2013-01-25 03:21:00,26.0,7.0,30.22,ESE,112,0.0,0.0,43,0.00,,,0.00,,2013-01-25 09:21:00,
2013-01-25 03:31:00,26.0,7.0,30.20,ESE,114,0.0,0.0,43,0.00,,,0.00,,2013-01-25 09:31:00,
2013-01-25 03:41:00,26.0,7.0,30.20,ESE,114,0.0,0.0,43,0.00,,,0.00,,2013-01-25 09:41:00,
2013-01-25 03:52:00,26.0,7.0,30.20,ESE,110,0.0,0.0,43,0.00,,,0.00,,2013-01-25 09:52:00,
2013-01-25 04:01:00,26.0,7.0,30.21,ESE,109,0.0,0.0,43,0.00,,,0.00,,2013-01-25 10:01:00,
2013-01-25 04:12:00,26.0,8.0,30.21,ESE,109,0.0,0.0,46,0.00,,,0.00,,2013-01-25 10:12:00,
2013-01-25 04:21:00,26.0,8.0,30.21,ESE,109,0.0,0.0,46,0.00,,,0.00,,2013-01-25 10:21:00,
2013-01-25 04:32:00,25.0,9.0,30.21,ESE,109,0.0,0.0,49,0.00,,,0.00,,2013-01-25 10:32:00,
2013-01-25 04:42:00,25.0,9.0,30.21,ESE,109,0.0,0.0,49,0.00,,,0.00,,2013-01-25 10:42:00,
2013-01-25 04:52:00,24.0,11.0,30.20,ESE,119,0.0,0.0,57,0.00,,,0.00,,2013-01-25 10:52:00,
2013-01-25 05:02:00,24.0,11.0,30.19,SE,126,0.0,0.0,57,0.00,,,0.00,,2013-01-25 11:02:00,
2013-01-25 05:11:00,24.0,11.0,30.19,SE,126,0.0,0.0,57,0.00,,,0.00,,2013-01-25 11:11:00,
2013-01-25 05:22:00,24.0,11.0,30.17,SE,126,0.0,0.0,58,0.00,,,0.00,,2013-01-25 11:22:00,
2013-01-25 05:32:00,24.0,12.0,30.16,ESE,111,0.0,0.0,59,0.00,,,0.00,,2013-01-25 11:32:00,
2013-01-25 05:42:00,24.0,12.0,30.16,ESE,111,0.0,0.0,59,0.00,,,0.00,,2013-01-25 11:42:00,
2013-01-25 05:52:00,24.0,13.0,30.16,SE,131,0.0,0.0,61,0.00,,,0.00,,2013-01-25 11:52:00,
2013-01-25 06:02:00,24.0,13.0,30.16,ESE,113,0.0,0.0,63,0.00,,,0.00,,2013-01-25 12:02:00,
2013-01-25 06:11:00,24.0,13.0,30.16,ESE,113,0.0,0.0,63,0.00,,,0.00,,2013-01-25 12:11:00,
2013-01-25 06:22:00,24.0,14.0,30.14,ESE,113,0.0,0.0,66,0.00,,,0.00,,2013-01-25 12:22:00,
2013-01-25 06:32:00,23.0,14.0,30.15,ESE,111,0.0,0.0,67,0.00,,,0.00,,2013-01-25 12:32:00,
2013-01-25 06:42:00,23.0,14.0,30.15,ESE,111,0.0,0.0,67,0.00,,,0.00,,2013-01-25 12:42:00,
2013-01-25 06:53:00,23.0,14.0,30.16,ESE,111,0.0,0.0,68,0.00,,,0.00,,2013-01-25 12:53:00,
2013-01-25 07:02:00,23.0,14.0,30.16,ESE,111,0.0,0.0,68,0.00,,,0.00,,2013-01-25 13:02:00,
2013-01-25 07:11:00,23.0,14.0,30.16,ESE,111,0.0,0.0,68,0.00,,,0.00,,2013-01-25 13:11:00,
2013-01-25 07:22:00,23.0,14.0,30.17,ESE,111,0.0,0.0,68,0.00,,,0.00,,2013-01-25 13:22:00,
2013-01-25 07:32:00,23.0,14.0,30.17,ESE,111,0.0,0.0,69,0.00,,,0.00,,2013-01-25 13:32:00,
2013-01-25 07:42:00,23.0,14.0,30.17,ESE,111,0.0,0.0,69,0.00,,,0.00,,2013-01-25 13:42:00,
2013-01-25 07:53:00,24.0,16.0,30.15,ESE,111,0.0,0.0,70,0.00,,,0.00,,2013-01-25 13:53:00,
2013-01-25 08:02:00,24.0,15.0,30.15,ESE,111,0.0,0.0,68,0.00,,,0.00,,2013-01-25 14:02:00,
2013-01-25 08:12:00,24.0,15.0,30.15,ESE,111,0.0,0.0,68,0.00,,,0.00,,2013-01-25 14:12:00,
2013-01-25 08:22:00,24.0,15.0,30.14,ESE,111,0.0,0.0,68,0.00,,,0.00,,2013-01-25 14:22:00,
2013-01-25 08:32:00,24.0,15.0,30.14,ESE,111,0.0,0.0,67,0.00,,,0.00,,2013-01-25 14:32:00,
2013-01-25 08:42:00,24.0,15.0,30.14,ESE,111,0.0,0.0,67,0.00,,,0.00,,2013-01-25 14:42:00,
2013-01-25 08:53:00,25.0,15.0,30.14,SSE,150,0.0,0.0,66,0.00,,,0.00,,2013-01-25 14:53:00,
2013-01-25 09:02:00,25.0,15.0,30.14,SSE,148,0.0,0.0,65,0.00,,,0.00,,2013-01-25 15:02:00,
2013-01-25 09:12:00,25.0,15.0,30.14,SSE,148,0.0,0.0,65,0.00,,,0.00,,2013-01-25 15:12:00,
2013-01-25 09:22:00,26.0,14.0,30.15,SSE,148,0.0,0.0,61,0.00,,,0.00,,2013-01-25 15:22:00,
2013-01-25 09:32:00,27.0,15.0,30.15,SSE,148,0.0,0.0,59,0.00,,,0.00,,2013-01-25 15:32:00,
2013-01-25 09:42:00,27.0,15.0,30.15,SSE,148,0.0,0.0,59,0.00,,,0.00,,2013-01-25 15:42:00,
2013-01-25 09:53:00,28.0,14.0,30.15,SSE,153,0.0,0.0,55,0.00,,,0.00,,2013-01-25 15:53:00,
2013-01-25 10:03:00,29.0,14.0,30.14,South,171,0.0,0.0,52,0.00,,,0.00,,2013-01-25 16:03:00,
2013-01-25 10:12:00,29.0,14.0,30.14,South,171,0.0,0.0,52,0.00,,,0.00,,2013-01-25 16:12:00,
2013-01-25 10:22:00,31.0,14.0,30.14,South,173,0.0,0.0,48,0.00,,,0.00,,2013-01-25 16:22:00,
2013-01-25 10:32:00,31.0,13.0,30.14,SSW,194,0.0,0.0,46,0.00,,,0.00,,2013-01-25 16:32:00,
2013-01-25 10:42:00,31.0,13.0,30.14,SSW,194,0.0,0.0,46,0.00,,,0.00,,2013-01-25 16:42:00,
2013-01-25 10:53:00,32.0,13.0,30.13,SSW,199,0.0,0.0,44,0.00,,,0.00,,2013-01-25 16:53:00,
2013-01-25 11:02:00,32.0,12.0,30.13,SSW,207,0.0,0.0,43,0.00,,,0.00,,2013-01-25 17:02:00,
2013-01-25 11:12:00,32.0,12.0,30.13,SSW,207,0.0,0.0,43,0.00,,,0.00,,2013-01-25 17:12:00,
2013-01-25 11:22:00,33.0,12.0,30.12,SSW,197,0.0,0.0,42,0.00,,,0.00,,2013-01-25 17:22:00,
2013-01-25 11:32:00,34.0,14.0,30.12,SSW,197,0.0,0.0,43,0.00,,,0.00,,2013-01-25 17:32:00,
2013-01-25 11:42:00,34.0,14.0,30.12,SSW,197,0.0,0.0,43,0.00,,,0.00,,2013-01-25 17:42:00,
2013-01-25 11:53:00,34.0,14.0,30.11,NNE,13,0.0,0.0,43,0.00,,,0.00,,2013-01-25 17:53:00,
2013-01-25 12:02:00,35.0,14.0,30.10,SSW,205,0.0,0.0,41,0.00,,,0.00,,2013-01-25 18:02:00,
2013-01-25 12:12:00,35.0,14.0,30.10,SSW,205,0.0,0.0,41,0.00,,,0.00,,2013-01-25 18:12:00,
2013-01-25 12:23:00,37.0,15.0,30.09,SSW,193,0.0,0.0,40,0.00,,,0.00,,2013-01-25 18:23:00,
2013-01-25 12:32:00,37.0,14.0,30.09,SSW,210,0.0,0.0,39,0.00,,,0.00,,2013-01-25 18:32:00,
2013-01-25 12:42:00,37.0,14.0,30.09,SSW,210,0.0,0.0,39,0.00,,,0.00,,2013-01-25 18:42:00,
2013-01-25 12:52:00,37.0,16.0,30.08,SSW,197,0.0,0.0,41,0.00,,,0.00,,2013-01-25 18:52:00,
2013-01-25 13:02:00,37.0,14.0,30.08,SSW,211,0.0,0.0,39,0.00,,,0.00,,2013-01-25 19:02:00,
2013-01-25 13:12:00,37.0,14.0,30.08,SSW,211,0.0,0.0,39,0.00,,,0.00,,2013-01-25 19:12:00,
2013-01-25 13:22:00,37.0,14.0,30.06,SSW,212,0.0,0.0,39,0.00,,,0.00,,2013-01-25 19:22:00,
2013-01-25 13:32:00,38.0,15.0,30.06,SSW,192,0.0,0.0,38,0.00,,,0.00,,2013-01-25 19:32:00,
2013-01-25 13:42:00,38.0,15.0,30.06,SSW,192,0.0,0.0,38,0.00,,,0.00,,2013-01-25 19:42:00,
2013-01-25 13:53:00,39.0,15.0,30.06,South,186,0.0,0.0,37,0.00,,,0.00,,2013-01-25 19:53:00,
2013-01-25 14:02:00,39.0,16.0,30.06,SSW,194,0.0,0.0,38,0.00,,,0.00,,2013-01-25 20:02:00,
2013-01-25 14:12:00,39.0,16.0,30.06,SSW,194,0.0,0.0,38,0.00,,,0.00,,2013-01-25 20:12:00,
2013-01-25 14:22:00,39.0,14.0,30.06,SSW,202,0.0,0.0,36,0.00,,,0.00,,2013-01-25 20:22:00,
2013-01-25 14:32:00,40.0,14.0,30.06,SW,220,0.0,0.0,34,0.00,,,0.00,,2013-01-25 20:32:00,
2013-01-25 14:42:00,40.0,14.0,30.06,SW,220,0.0,0.0,34,0.00,,,0.00,,2013-01-25 20:42:00,
2013-01-25 14:52:00,40.0,14.0,30.06,South,180,0.0,0.0,34,0.00,,,0.00,,2013-01-25 20:52:00,
2013-01-25 15:02:00,40.0,15.0,30.06,SSW,205,0.0,0.0,35,0.00,,,0.00,,2013-01-25 21:02:00,
2013-01-25 15:11:00,40.0,15.0,30.06,SSW,205,0.0,0.0,35,0.00,,,0.00,,2013-01-25 21:11:00,
2013-01-25 15:22:00,40.0,15.0,30.04,SSW,198,0.0,0.0,35,0.00,,,0.00,,2013-01-25 21:22:00,
2013-01-25 15:32:00,40.0,15.0,30.04,SSW,202,0.0,0.0,36,0.00,,,0.00,,2013-01-25 21:32:00,
2013-01-25 15:42:00,40.0,15.0,30.04,SSW,202,0.0,0.0,36,0.00,,,0.00,,2013-01-25 21:42:00,
2013-01-25 15:52:00,39.0,14.0,30.05,SSW,195,0.0,0.0,36,0.00,,,0.00,,2013-01-25 21:52:00,
2013-01-25 16:02:00,39.0,15.0,30.05,West,259,0.0,0.0,37,0.00,,,0.00,,2013-01-25 22:02:00,
2013-01-25 16:11:00,39.0,15.0,30.05,West,259,0.0,0.0,37,0.00,,,0.00,,2013-01-25 22:11:00,
2013-01-25 16:22:00,39.0,16.0,30.05,SSW,198,0.0,0.0,38,0.00,,,0.00,,2013-01-25 22:22:00,
2013-01-25 16:32:00,39.0,16.0,30.05,SW,223,0.0,0.0,39,0.00,,,0.00,,2013-01-25 22:32:00,
2013-01-25 16:42:00,39.0,16.0,30.05,SW,223,0.0,0.0,39,0.00,,,0.00,,2013-01-25 22:42:00,
2013-01-25 16:52:00,38.0,16.0,30.05,SW,220,0.0,0.0,40,0.00,,,0.00,,2013-01-25 22:52:00,
2013-01-25 17:02:00,37.0,16.0,30.05,SW,220,0.0,0.0,42,0.00,,,0.00,,2013-01-25 23:02:00,
2013-01-25 17:11:00,37.0,16.0,30.05,SW,220,0.0,0.0,42,0.00,,,0.00,,2013-01-25 23:11:00,
2013-01-25 17:22:00,35.0,16.0,30.06,SW,220,0.0,0.0,45,0.00,,,0.00,,2013-01-25 23:22:00,
2013-01-25 17:32:00,34.0,15.0,30.06,SW,220,0.0,0.0,46,0.00,,,0.00,,2013-01-25 23:32:00,
2013-01-25 17:42:00,34.0,15.0,30.06,SW,220,0.0,0.0,46,0.00,,,0.00,,2013-01-25 23:42:00,
2013-01-25 17:53:00,32.0,16.0,30.07,SW,220,0.0,0.0,51,0.00,,,0.00,,2013-01-25 23:53:00,
2013-01-25 18:02:00,31.0,16.0,30.07,SW,220,0.0,0.0,53,0.00,,,0.00,,2013-01-26 00:02:00,
2013-01-25 18:11:00,31.0,16.0,30.07,SW,220,0.0,0.0,53,0.00,,,0.00,,2013-01-26 00:11:00,
2013-01-25 18:22:00,29.0,15.0,30.08,SW,220,0.0,0.0,56,0.00,,,0.00,,2013-01-26 00:22:00,
2013-01-25 18:32:00,28.0,16.0,30.08,SW,220,0.0,0.0,59,0.00,,,0.00,,2013-01-26 00:32:00,
2013-01-25 18:42:00,28.0,16.0,30.08,SW,220,0.0,0.0,59,0.00,,,0.00,,2013-01-26 00:42:00,
2013-01-25 18:53:00,27.0,15.0,30.09,SW,220,0.0,0.0,60,0.00,,,0.00,,2013-01-26 00:53:00,
2013-01-25 19:01:00,27.0,16.0,30.10,SW,220,0.0,0.0,63,0.00,,,0.00,,2013-01-26 01:01:00,
2013-01-25 19:11:00,27.0,16.0,30.10,SW,220,0.0,0.0,63,0.00,,,0.00,,2013-01-26 01:11:00,
2013-01-25 19:22:00,27.0,16.0,30.11,SW,220,0.0,0.0,64,0.00,,,0.00,,2013-01-26 01:22:00,
2013-01-25 19:32:00,27.0,16.0,30.11,SW,220,0.0,0.0,64,0.00,,,0.00,,2013-01-26 01:32:00,
2013-01-25 19:42:00,27.0,16.0,30.11,SW,220,0.0,0.0,64,0.00,,,0.00,,2013-01-26 01:42:00,
2013-01-25 19:52:00,26.0,16.0,30.12,SW,220,0.0,0.0,66,0.00,,,0.00,,2013-01-26 01:52:00,
2013-01-25 20:01:00,27.0,18.0,30.12,SW,220,0.0,0.0,67,0.00,,,0.00,,2013-01-26 02:01:00,
2013-01-25 20:11:00,27.0,18.0,30.12,SW,220,0.0,0.0,67,0.00,,,0.00,,2013-01-26 02:11:00,
2013-01-25 20:22:00,31.0,18.0,30.12,WNW,289,0.0,0.0,58,0.00,,,0.00,,2013-01-26 02:22:00,
2013-01-25 20:32:00,31.0,18.0,30.13,West,273,0.0,0.0,58,0.00,,,0.00,,2013-01-26 02:32:00,
2013-01-25 20:42:00,31.0,18.0,30.13,West,273,0.0,0.0,58,0.00,,,0.00,,2013-01-26 02:42:00,
2013-01-25 20:52:00,32.0,18.0,30.13,West,280,0.0,0.0,56,0.00,,,0.00,,2013-01-26 02:52:00,
2013-01-25 21:02:00,30.0,17.0,30.14,West,280,0.0,0.0,58,0.00,,,0.00,,2013-01-26 03:02:00,
2013-01-25 21:11:00,30.0,17.0,30.14,West,280,0.0,0.0,58,0.00,,,0.00,,2013-01-26 03:11:00,
2013-01-25 21:21:00,27.0,16.0,30.14,West,280,0.0,0.0,63,0.00,,,0.00,,2013-01-26 03:21:00,
2013-01-25 21:31:00,27.0,17.0,30.14,West,280,0.0,0.0,65,0.00,,,0.00,,2013-01-26 03:31:00,
2013-01-25 21:42:00,27.0,17.0,30.14,West,280,0.0,0.0,65,0.00,,,0.00,,2013-01-26 03:42:00,
2013-01-25 21:52:00,26.0,18.0,30.16,West,277,0.0,0.0,70,0.00,,,0.00,,2013-01-26 03:52:00,
2013-01-25 22:01:00,26.0,18.0,30.15,West,277,0.0,0.0,71,0.00,,,0.00,,2013-01-26 04:01:00,
2013-01-25 22:12:00,26.0,18.0,30.15,West,277,0.0,0.0,71,0.00,,,0.00,,2013-01-26 04:12:00,
2013-01-25 22:21:00,28.0,19.0,30.17,West,277,0.0,0.0,69,0.00,,,0.00,,2013-01-26 04:21:00,
2013-01-25 22:32:00,29.0,19.0,30.17,WNW,286,0.0,0.0,66,0.00,,,0.00,,2013-01-26 04:32:00,
2013-01-25 22:42:00,29.0,19.0,30.17,WNW,286,0.0,0.0,66,0.00,,,0.00,,2013-01-26 04:42:00,
2013-01-25 22:52:00,30.0,16.0,30.19,NW,305,0.0,0.0,56,0.00,,,0.00,,2013-01-26 04:52:00,
2013-01-25 23:03:00,29.0,15.0,30.19,WSW,255,0.0,0.0,55,0.00,,,0.00,,2013-01-26 05:03:00,
2013-01-25 23:12:00,29.0,15.0,30.19,WSW,255,0.0,0.0,55,0.00,,,0.00,,2013-01-26 05:12:00,
2013-01-25 23:23:00,28.0,12.0,30.22,WNW,300,0.0,0.0,51,0.00,,,0.00,,2013-01-26 05:23:00,
2013-01-25 23:33:00,27.0,12.0,30.22,West,271,0.0,0.0,52,0.00,,,0.00,,2013-01-26 05:33:00,
2013-01-25 23:41:00,27.0,12.0,30.22,West,271,0.0,0.0,52,0.00,,,0.00,,2013-01-26 05:41:00,
2013-01-25 23:52:00,26.0,11.0,30.22,NW,323,0.0,0.0,53,0.00,,,0.00,,2013-01-26 05:52:00,